(190349) = 1998 WL7 = 1999 BO8

Discovered at Socorro on 1998-11-23 by LINEAR.

Orbit

Orbit type: Main Belt

Note: WebGL enabled browser required.

epoch2024-03-31.0
epoch JD2460400.5
perihelion date2023-02-15.92884
perihelion JD2459991.42884
argument of perihelion (°)149.14915
ascending node (°)269.63076
inclination (°)24.72506
eccentricity0.2560860
perihelion distance (AU)1.7134316
Tisserand w.r.t. Jupiter3.4
ΔV w.r.t. Earth (km/sec)11.0
semimajor axis (AU)2.3032657
mean anomaly (°)115.34184
mean daily motion (°/day)0.28196030
aphelion distance (AU)2.893
period (years)3.5
P-vector [x]0.47131663
P-vector [y]0.69957418
P-vector [z]0.53708156
Q-vector [x]-0.77648103
Q-vector [y]0.61792495
Q-vector [z]-0.12347458
absolute magnitude14.73
phase slope0.15
uncertainty0
referenceE2024-GJ9
observations used1403
oppositions14
arc length (days)9297
first opposition used1998
last opposition used2024
residual rms (arc-secs)0.64
perturbers coarse indicatorM-v
perturbers precise indicator003Ek
first observation date used1998-10-30.0
last observation date used2024-04-12.0
computer nameMPCLINUX
JD of orbit computation2456847.620048
perihelion JD uncertainty (days)7.8005E-05
argument of perihelion uncertainty (°)2.5351E-05
ascending node uncertainty (°)1.5818E-05
inclination uncertainty (°)7.3491E-06
eccentricity uncertainty 5.1347E-08
perihelion distance uncertainty (AU)1.1487E-07
Minimum Orbit Intersection Distances (in AU)
for orbit epoch: 2460400.5, reference: E2024-GJ9
Mercury1.40996
Venus1.01231
Earth0.75584
Mars0.19205
Jupiter2.47448
Saturn7.22699
Uranus16.0936
Neptune27.6866

Observations

1410 total observations over interval: 1998 10 30.43459 – 2024 03 21.032442
These data are available for download (format description).

Date (UT) J2000 RA J2000 Dec Magn Location Ref
1998 10 30.43459 08 26 14.45 +19 02 53.7 18.4   704 – Lincoln Laboratory ETS, New Mexico MPS 5887
1998 10 30.44560 08 26 15.11 +19 02 41.6 18.3   704 – Lincoln Laboratory ETS, New Mexico MPS 5887
1998 10 30.45645 08 26 16.01 +19 02 28.7 18.1   704 – Lincoln Laboratory ETS, New Mexico MPS 5887
1998 10 30.46708 08 26 16.65 +19 02 15.1 18.7   704 – Lincoln Laboratory ETS, New Mexico MPS 5887
1998 11 17.45307 08 42 58.75 +12 58 41.5 17.5 R 699 – Lowell Observatory-LONEOS MPS 4486
1998 11 17.47344 08 42 59.51 +12 58 16.0   699 – Lowell Observatory-LONEOS MPS 4486
1998 11 17.49381 08 43 00.18 +12 57 49.9   699 – Lowell Observatory-LONEOS MPS 4486
1998 11 23.41874 08 45 57.46 +10 51 12.9 18.1   704 – Lincoln Laboratory ETS, New Mexico MPS 3189
1998 11 23.42777 08 45 57.70 +10 51 01.3 18.1   704 – Lincoln Laboratory ETS, New Mexico MPS 3189
1998 11 23.43708 08 45 57.85 +10 50 49.3 18.0   704 – Lincoln Laboratory ETS, New Mexico MPS 3189
1998 11 23.44635 08 45 58.04 +10 50 36.5 18.2   704 – Lincoln Laboratory ETS, New Mexico MPS 3189
1998 11 23.45558 08 45 58.10 +10 50 26.0 18.2   704 – Lincoln Laboratory ETS, New Mexico MPS 3189
1998 11 25.31404 08 46 36.83 +10 10 10.4 18.6   704 – Lincoln Laboratory ETS, New Mexico MPS 3189
1998 11 25.32460 08 46 36.83 +10 09 56.9 18.7   704 – Lincoln Laboratory ETS, New Mexico MPS 3189
1998 11 25.33518 08 46 37.20 +10 09 43.2 18.0   704 – Lincoln Laboratory ETS, New Mexico MPS 3189
1998 11 25.34572 08 46 37.36 +10 09 30.5 18.1   704 – Lincoln Laboratory ETS, New Mexico MPS 3189
1998 12 23.30656 08 38 36.53 +00 04 31.8 17.5   704 – Lincoln Laboratory ETS, New Mexico MPS 5887
1998 12 23.31708 08 38 35.98 +00 04 18.4 18.2   704 – Lincoln Laboratory ETS, New Mexico MPS 5887
1998 12 23.32762 08 38 35.45 +00 04 04.2 18.0   704 – Lincoln Laboratory ETS, New Mexico MPS 5887
1998 12 23.33810 08 38 34.82 +00 03 53.6 18.0   704 – Lincoln Laboratory ETS, New Mexico MPS 5887
1998 12 23.34858 08 38 34.23 +00 03 40.5   704 – Lincoln Laboratory ETS, New Mexico MPS 5887
1999 01 22.20411 08 00 52.65 -07 36 36.7 17.5   704 – Lincoln Laboratory ETS, New Mexico MPS 3698
1999 01 22.22685 08 00 50.67 -07 36 49.2   704 – Lincoln Laboratory ETS, New Mexico MPS 3698
1999 01 22.27074 08 00 46.98 -07 37 13.5 18.7   704 – Lincoln Laboratory ETS, New Mexico MPS 3698
1999 01 22.29287 08 00 45.05 -07 37 25.3 18.2   704 – Lincoln Laboratory ETS, New Mexico MPS 3698
1999 01 23.20635 07 59 29.57 -07 45 22.3 17.2   704 – Lincoln Laboratory ETS, New Mexico MPS 3698
1999 01 23.22829 07 59 27.65 -07 45 32.6 18.4   704 – Lincoln Laboratory ETS, New Mexico MPS 3698
1999 01 23.25007 07 59 25.86 -07 45 45.0   704 – Lincoln Laboratory ETS, New Mexico MPS 3698
1999 01 23.29364 07 59 22.13 -07 46 07.0 17.4   704 – Lincoln Laboratory ETS, New Mexico MPS 3698
2001 06 19.37079 22 22 29.56 +15 04 05.6 18.4 R 699 – Lowell Observatory-LONEOS MPS 32219
2001 06 19.37860 22 22 29.71 +15 04 15.6   699 – Lowell Observatory-LONEOS MPS 32219
2001 06 19.38644 22 22 29.92 +15 04 24.1   699 – Lowell Observatory-LONEOS MPS 32219
2001 06 19.39428 22 22 30.12 +15 04 33.0   699 – Lowell Observatory-LONEOS MPS 32219
2001 07 14.34589 22 25 58.25 +23 05 41.2 17.7   704 – Lincoln Laboratory ETS, New Mexico MPS 32219
2001 07 14.35682 22 25 58.18 +23 05 53.1 18.3   704 – Lincoln Laboratory ETS, New Mexico MPS 32219
2001 07 14.36787 22 25 57.97 +23 06 05.8 18.1   704 – Lincoln Laboratory ETS, New Mexico MPS 32219
2001 07 25.35506 22 21 43.50 +26 23 23.6 17.6   644 – Palomar Mountain/NEAT MPS 32219
2001 07 25.36579 22 21 43.12 +26 23 34.6 17.4   644 – Palomar Mountain/NEAT MPS 32219
2001 07 25.37649 22 21 42.73 +26 23 45.6 17.4   644 – Palomar Mountain/NEAT MPS 32219
2001 07 30.33833 22 18 30.94 +27 45 08.7 17.7   704 – Lincoln Laboratory ETS, New Mexico MPS 32219
2001 07 30.34915 22 18 30.43 +27 45 18.5 18.2   704 – Lincoln Laboratory ETS, New Mexico MPS 32219
2001 07 30.35971 22 18 29.94 +27 45 29.1 18.6   704 – Lincoln Laboratory ETS, New Mexico MPS 32219
2001 07 30.37091 22 18 29.37 +27 45 40.5 18.5   704 – Lincoln Laboratory ETS, New Mexico MPS 32219
2001 07 30.38141 22 18 28.97 +27 45 49.4 18.4   704 – Lincoln Laboratory ETS, New Mexico MPS 32219
2001 07 31.34859 22 17 46.23 +28 00 56.1 17.9   704 – Lincoln Laboratory ETS, New Mexico MPS 32219
2001 07 31.36957 22 17 45.05 +28 01 16.1 18.5   704 – Lincoln Laboratory ETS, New Mexico MPS 32219
2001 07 31.38083 22 17 44.63 +28 01 26.0 18.7   704 – Lincoln Laboratory ETS, New Mexico MPS 32219
2001 08 11.32338 22 07 42.55 +30 31 28.6 17.3   644 – Palomar Mountain/NEAT MPS 32747
2001 08 11.33416 22 07 41.84 +30 31 36.3 17.3   644 – Palomar Mountain/NEAT MPS 32747
2001 08 11.34495 22 07 41.11 +30 31 43.9 17.1   644 – Palomar Mountain/NEAT MPS 32747
2001 08 13.90755 22 04 52.50 +31 00 15.0 17.7 R 941 – Observatorio Pla D'Arguines MPS 32747
2001 08 13.91127 22 04 52.29 +31 00 17.8 17.7 R 941 – Observatorio Pla D'Arguines MPS 32747
2001 08 13.91412 22 04 52.08 +31 00 20.0 17.7 R 941 – Observatorio Pla D'Arguines MPS 32747
2001 08 13.91734 22 04 51.75 +31 00 21.9 17.7 R 941 – Observatorio Pla D'Arguines MPS 32747
2001 08 23.27469 21 53 33.62 +32 18 52.6 17.2   704 – Lincoln Laboratory ETS, New Mexico MPS 33157
2001 08 23.28726 21 53 32.62 +32 18 57.5 17.9   704 – Lincoln Laboratory ETS, New Mexico MPS 33157
2001 08 23.29994 21 53 31.63 +32 19 02.0 17.4   704 – Lincoln Laboratory ETS, New Mexico MPS 33157
2001 08 23.31255 21 53 30.65 +32 19 06.5 17.7   704 – Lincoln Laboratory ETS, New Mexico MPS 33157
2001 08 23.32545 21 53 29.62 +32 19 11.2 17.7   704 – Lincoln Laboratory ETS, New Mexico MPS 33157
2001 09 08.19868 21 33 43.87 +32 50 32.0 17.8   704 – Lincoln Laboratory ETS, New Mexico MPS 34055
2001 09 08.21253 21 33 42.95 +32 50 31.5 18.6   704 – Lincoln Laboratory ETS, New Mexico MPS 34055
2001 09 08.22624 21 33 41.90 +32 50 28.9 17.9   704 – Lincoln Laboratory ETS, New Mexico MPS 34055
2001 09 08.24058 21 33 40.85 +32 50 27.3 18.0   704 – Lincoln Laboratory ETS, New Mexico MPS 34055
2001 09 08.25407 21 33 39.88 +32 50 25.4 18.3   704 – Lincoln Laboratory ETS, New Mexico MPS 34055
2001 09 10.18233 21 31 29.70 +32 45 33.6 18.4   704 – Lincoln Laboratory ETS, New Mexico MPS 34055
2001 09 10.19610 21 31 28.75 +32 45 31.0 18.4   704 – Lincoln Laboratory ETS, New Mexico MPS 34055
2001 09 10.20987 21 31 27.75 +32 45 28.3 18.5   704 – Lincoln Laboratory ETS, New Mexico MPS 34055
2001 09 10.22366 21 31 26.82 +32 45 29.7 19.3   704 – Lincoln Laboratory ETS, New Mexico MPS 34055
2001 09 10.23745 21 31 25.85 +32 45 26.2 19.2   704 – Lincoln Laboratory ETS, New Mexico MPS 34055
2001 09 22.17994 21 20 29.03 +31 39 38.8 16.8   644 – Palomar Mountain/NEAT MPS 35430
2001 09 22.20137 21 20 28.05 +31 39 28.9 16.7   644 – Palomar Mountain/NEAT MPS 35430
2001 09 22.22272 21 20 27.09 +31 39 19.0 16.7   644 – Palomar Mountain/NEAT MPS 35430
2001 09 24.20283 21 19 08.83 +31 23 24.2 17.9   704 – Lincoln Laboratory ETS, New Mexico MPS 35430
2001 09 24.21767 21 19 08.24 +31 23 16.5 18.2   704 – Lincoln Laboratory ETS, New Mexico MPS 35430
2001 09 24.23222 21 19 07.69 +31 23 09.2 17.8   704 – Lincoln Laboratory ETS, New Mexico MPS 35430
2001 09 24.24674 21 19 07.10 +31 23 02.1 17.7   704 – Lincoln Laboratory ETS, New Mexico MPS 35430
2001 09 24.26134 21 19 06.52 +31 22 54.5 17.9   704 – Lincoln Laboratory ETS, New Mexico MPS 35430
2001 09 28.93133 21 16 42.59 +30 41 06.3 17.2 R 628 – Mulheim-Ruhr MPS 35430
2001 09 28.93866 21 16 42.41 +30 41 02.4 16.8 R 628 – Mulheim-Ruhr MPS 35430
2001 09 28.94968 21 16 42.11 +30 40 56.0 16.9 R 628 – Mulheim-Ruhr MPS 35430
2001 09 28.95701 21 16 41.91 +30 40 52.7 17.0 R 628 – Mulheim-Ruhr MPS 35430
2001 09 28.96435 21 16 41.70 +30 40 47.3 17.1 R 628 – Mulheim-Ruhr MPS 35430
2001 10 18.09054 21 17 07.46 +27 15 33.3 17.5   704 – Lincoln Laboratory ETS, New Mexico MPS 38869
2001 10 18.10632 21 17 07.81 +27 15 23.1 18.0   704 – Lincoln Laboratory ETS, New Mexico MPS 38869
2001 10 18.12214 21 17 08.21 +27 15 12.3 18.0   704 – Lincoln Laboratory ETS, New Mexico MPS 38869
2001 10 18.13794 21 17 08.60 +27 15 01.8 17.8   704 – Lincoln Laboratory ETS, New Mexico MPS 38869
